[[[{"header":{"parameterUnit":"kt","parameterCategory":2,"dx":1,"dy":1,"la1":30.253999710083008,"la2":30.299108505249023,"lo1":-89.0895004272461,"lo2":-89.04439544677734,"nx":28,"ny":28,"refTime":"2022-10-07T21:00:00:Z","depth":0,"parameterNumber":1,"parameterNumberName":"U-component_of_WINDS"},"data":[-2.1048,-2.0981,-2.0964,-2.0879,-2.0849,-2.0786,-2.0758,-2.0719,-2.0683,-2.0604,-2.0555,-2.0528,-2.0482,-2.0417,-2.0361,-2.0349,-2.0326,-2.0317,-2.0305,-2.0366,-2.0373,-2.0379,-2.0395,-2.0313,-2.0313,-2.0244,-2.0244,-2.0243,-2.11,-2.1071,-2.102,-2.0959,-2.0915,-2.0915,-2.0864,-2.0827,-2.077,-2.0724,-2.0674,-2.0602,-2.0541,-2.0496,-2.0433,-2.0399,-2.0393,-2.0383,-2.0385,-2.0377,-2.0442,-2.0459,-2.0389,-2.0389,-2.0389,-2.0389,-2.0389,-2.0389,-2.1189,-2.1149,-2.1102,-2.1046,-2.101,-2.0968,-2.0926,-2.0894,-2.0842,-2.0776,-2.0762,-2.0695,-2.0643,-2.0555,-2.052,-2.0466,-2.0472,-2.0454,-2.0449,-2.0445,-2.0445,-2.0548,-2.0454,-2.0454,-2.0454,-2.0454,-2.0454,0,-2.1248,-2.1237,-2.1186,-2.113,-2.1088,-2.1042,-2.0996,-2.0968,-2.0932,-2.089,-2.0826,-2.0786,-2.0705,-2.0641,-2.0576,-2.0542,-2.0532,-2.0528,-2.0516,-2.0522,-2.0538,-2.0529,-2.0636,-2.053,-2.0531,-2.0531,-2.0531,-2.0532,-2.1337,-2.1291,-2.1231,-2.1198,-2.1168,-2.1114,-2.1077,-2.1048,-2.101,-2.0947,-2.091,-2.0847,-2.0794,-2.0692,-2.0649,-2.0587,-2.0581,-2.0543,-2.0571,-2.0581,-2.058,-2.0583,-2.0579,-2.0538,-2.0537,-2.0536,-2.0536,0,-2.1388,-2.1358,-2.128,-2.1224,-2.1208,-2.1161,-2.1111,-2.1068,-2.1039,-2.0975,-2.0958,-2.0912,-2.0848,-2.0811,-2.0729,-2.0711,-2.063,-2.0626,-2.065,-2.0647,-2.0609,-2.0613,-2.0493,-2.0476,-2.0561,-2.056,-2.056,0,-2.1451,-2.1391,-2.1349,-2.1305,-2.1237,-2.121,-2.1143,-2.1112,-2.1066,-2.1015,-2.0999,-2.0951,-2.0911,-2.0857,-2.083,-2.0758,-2.0741,-2.0723,-2.0717,-2.0724,-2.0727,-2.0701,-2.0705,-2.0703,-2.0704,-2.0705,-2.0705,0,-2.1535,-2.144,-2.1369,-2.1342,-2.1274,-2.124,-2.121,-2.1157,-2.112,-2.1065,-2.104,-2.0977,-2.0942,-2.0893,-2.086,-2.0881,-2.077,-2.079,-2.0751,-2.0752,-2.0726,-2.0728,-2.0633,-2.0706,-2.0706,-2.0706,-2.0707,0,-2.1579,-2.1528,-2.1429,-2.1372,-2.1348,-2.13,-2.1238,-2.1188,-2.1133,-2.1114,-2.107,-2.1054,-2.0987,-2.1011,-2.0917,-2.0954,-2.092,-2.0896,-2.0892,-2.0883,-2.091,-2.0861,-2.0774,-2.0764,-2.0877,-2.0878,-2.0879,0,-2.1684,-2.1576,-2.1551,-2.1456,-2.1401,-2.1389,-2.1334,-2.1286,-2.1256,-2.1203,-2.1169,-2.1107,-2.1117,-2.1092,-2.1051,-2.1011,-2.0964,-2.1017,-2.0937,-2.0934,-2.0953,-2.0873,-2.087,-2.0798,-2.0897,-2.0895,-2.0894,0,-2.1761,-2.1679,-2.1663,-2.1632,-2.1564,-2.1516,-2.1453,-2.1387,-2.1354,-2.1299,-2.1245,-2.1156,-2.116,-2.1118,-2.1096,-2.1055,-2.0995,-2.1064,-2.1062,-2.1053,-2.0902,-2.0899,-2.0888,-2.099,-2.0988,-2.0986,-2.0908,0,-2.1837,-2.1778,-2.1735,-2.1663,-2.162,-2.1558,-2.152,-2.148,-2.1466,-2.1435,-2.1353,-2.1299,-2.1228,-2.1203,-2.1187,-2.1105,-2.1112,-2.1116,-2.1134,-2.1082,-2.1055,-2.1044,-2.1178,-2.1178,-2.1179,-2.1179,0,0,-2.1945,-2.1858,-2.1832,-2.177,-2.1732,-2.1719,-2.1655,-2.1616,-2.1536,-2.1509,-2.152,-2.1386,-2.1341,-2.1245,-2.1225,-2.1195,-2.1177,-2.1195,-2.1107,-2.1099,-2.1092,-2.1064,-2.1053,-2.1179,-2.1179,-2.1179,-2.118,0,-2.1965,-2.1925,-2.1863,-2.1823,-2.1761,-2.1732,-2.1717,-2.1652,-2.1629,-2.1548,-2.1535,-2.148,-2.1371,-2.1326,-2.1289,-2.1207,-2.1198,-2.1188,-2.1158,-2.1111,-2.1103,-2.1096,-2.1067,-2.1057,-2.118,-2.118,-2.118,0,-2.2034,-2.1988,-2.1954,-2.1868,-2.1826,-2.1767,-2.178,-2.1716,-2.1672,-2.1655,-2.1574,-2.1538,-2.1472,-2.1386,-2.1345,-2.1353,-2.122,-2.1253,-2.1251,-2.1244,-2.1197,-2.1187,-2.1178,-2.1292,-2.1293,-2.1293,0,0,-2.2056,-2.2,-2.1939,-2.1869,-2.1844,-2.1799,-2.1763,-2.1744,-2.1688,-2.1665,-2.1619,-2.1563,-2.15,-2.1458,-2.1396,-2.1306,-2.129,-2.1269,-2.1264,-2.126,-2.1251,-2.1203,-2.1193,-2.1295,-2.1295,-2.1296,0,0,-2.2065,-2.1993,-2.1989,-2.1904,-2.1853,-2.1786,-2.1743,-2.1736,-2.1676,-2.1679,-2.164,-2.1623,-2.1541,-2.1505,-2.154,-2.1402,-2.1421,-2.1412,-2.1428,-2.1421,-2.1415,-2.1425,-2.1541,0,0,0,0,0,-2.2065,-2.2003,-2.2,-2.198,-2.1868,-2.1788,-2.1773,-2.1743,-2.1759,-2.1726,-2.1686,-2.1678,-2.1517,-2.1546,-2.1525,-2.1486,-2.1324,-2.1319,-2.1314,-2.1313,-2.1306,-2.13,0,0,0,0,0,0,-2.2057,-2.2033,-2.2002,-2.1933,-2.1908,-2.179,-2.181,-2.18,-2.1761,-2.1762,-2.1687,-2.1676,-2.1646,-2.1555,-2.1536,-2.15,-2.1547,-2.1322,-2.1317,-2.1314,-2.1311,-2.1305,-2.13,0,0,0,0,0,-2.2051,-2.2031,-2.186,-2.1933,-2.1911,-2.1856,-2.1813,-2.1804,-2.1773,-2.171,-2.1699,-2.1754,-2.1646,-2.1628,-2.1543,-2.1509,-2.156,-2.1553,-2.1319,-2.1315,-2.1312,-2.1308,0,0,0,0,0,0,-2.2046,-2.2021,-2.1854,-2.1846,-2.1955,-2.1862,-2.1846,-2.1808,-2.1723,-2.1712,-2.1775,-2.1776,-2.1645,-2.1631,-2.1617,-2.1514,-2.157,-2.1563,-2.1559,-2.1316,-2.1314,-2.1311,0,0,0,0,0,0,-2.2032,-2.2015,-2.185,-2.1879,-2.1874,-2.1867,-2.1854,-2.1776,-2.1722,-2.1793,-2.1791,-2.1776,-2.1664,-2.1633,-2.1622,-2.1502,-2.1578,-2.1571,-2.1567,-2.1564,-2.1314,-2.1312,0,0,0,0,0,0,-2.2024,-2.2009,-2.1881,-2.1877,-2.1873,-2.178,-2.1798,-2.1684,-2.175,-2.1796,-2.1755,-2.1757,-2.1666,-2.1655,-2.1626,-2.1511,-2.1505,-2.1578,-2.1573,-2.157,-2.1568,0,0,0,0,0,0,0,-2.2018,-2.2124,-2.1903,-2.1875,-2.1872,-2.1772,-2.177,-2.1768,-2.1751,-2.1753,-2.1755,-2.1756,-2.1616,-2.1609,-2.1601,-2.1517,0,0,-2.1578,-2.1575,0,0,0,0,0,0,0,0,-2.2129,-2.2125,-2.1902,-2.1901,-2.1899,-2.1772,-2.177,-2.1768,-2.1751,-2.1753,-2.1754,-2.1756,-2.1614,-2.1608,-2.1602,0,0,0,0,0,0,0,0,0,0,0,0,0,0,0,-2.1902,-2.1901,0,-2.1772,-2.177,-2.1769,-2.1751,-2.1753,-2.1754,-2.1755,-2.1612,-2.1607,-2.1603,0,0,0,0,0,0,0,0,0,0,0,0,0,0,0,0,0,0,0,0,0,0,0,0,0,0,0,0,0,0,0,0,0,0,0,0,0,0,0,0,0,0,0,0,0,0,0,0,0,0,0,0,0,0,0,0,0,0,0,0,0,0,0,0,0,0,0,0,0]}],[{"header":{"parameterUnit":"kt","parameterCategory":2,"dx":1,"dy":1,"la1":30.253999710083008,"la2":30.299108505249023,"lo1":-89.0895004272461,"lo2":-89.04439544677734,"nx":28,"ny":28,"refTime":"2022-10-07T21:00:00:Z","depth":0,"parameterNumber":2,"parameterNumberName":"V-component_of_WINDS"},"data":[0.2308,0.2355,0.2336,0.2381,0.2373,0.24,0.2404,0.2407,0.2406,0.2436,0.245,0.2439,0.2432,0.2445,0.2459,0.2454,0.2459,0.2486,0.2474,0.2372,0.2356,0.2342,0.2327,0.2489,0.2489,0.258,0.2581,0.2581,0.2223,0.2214,0.2235,0.2243,0.2259,0.2221,0.2225,0.224,0.2267,0.2267,0.2282,0.2309,0.2328,0.2313,0.2329,0.2349,0.2331,0.2353,0.2349,0.2347,0.2239,0.2223,0.2366,0.2366,0.2366,0.2366,0.2366,0.2366,0.2062,0.2093,0.2087,0.2109,0.2109,0.2115,0.2141,0.2126,0.2147,0.2163,0.2142,0.2172,0.217,0.2185,0.2186,0.2208,0.2182,0.2201,0.2204,0.2208,0.2211,0.2069,0.2212,0.2212,0.2211,0.2211,0.221,0,0.1937,0.192,0.1941,0.1955,0.1972,0.1983,0.199,0.2006,0.1969,0.1989,0.2015,0.2028,0.2054,0.2076,0.209,0.2089,0.2052,0.205,0.2062,0.2067,0.2069,0.2061,0.1878,0.2045,0.2044,0.2043,0.2042,0.2042,0.1768,0.1809,0.1799,0.1815,0.1815,0.1845,0.1858,0.1823,0.1839,0.1844,0.1874,0.1898,0.1915,0.1963,0.1949,0.1969,0.1951,0.2015,0.1954,0.1957,0.1943,0.1939,0.1939,0.2026,0.2028,0.203,0.2031,0,0.1672,0.1647,0.1706,0.1694,0.1692,0.1737,0.1725,0.1757,0.1742,0.1783,0.179,0.1767,0.1796,0.1771,0.1802,0.1788,0.1854,0.184,0.1851,0.1844,0.1894,0.1887,0.2074,0.2094,0.1933,0.1935,0.1936,0,0.1515,0.1573,0.153,0.1567,0.1628,0.1592,0.1653,0.1647,0.1648,0.168,0.1636,0.1667,0.1633,0.166,0.164,0.1692,0.17,0.169,0.1683,0.1691,0.1691,0.1696,0.1686,0.1676,0.1675,0.1674,0.1673,0,0.1363,0.1413,0.1472,0.148,0.1475,0.1504,0.1503,0.1506,0.1522,0.1539,0.1547,0.1572,0.1584,0.1603,0.1576,0.1535,0.1642,0.158,0.1631,0.1631,0.1653,0.1651,0.1826,0.1672,0.1672,0.1672,0.1671,0,0.1231,0.1249,0.1344,0.1336,0.1351,0.1393,0.1411,0.1443,0.1449,0.1439,0.1453,0.1421,0.1471,0.1408,0.1473,0.1425,0.1439,0.1436,0.1439,0.1438,0.1368,0.1462,0.1637,0.1651,0.144,0.1438,0.1437,0,0.1059,0.115,0.112,0.1212,0.1249,0.1194,0.124,0.1249,0.1239,0.1269,0.126,0.1297,0.1247,0.1255,0.1291,0.1282,0.1345,0.1274,0.1311,0.1313,0.1303,0.1465,0.1494,0.1602,0.1412,0.1415,0.1417,0,0.0923,0.092,0.0939,0.0944,0.0952,0.0986,0.1041,0.1069,0.109,0.1109,0.115,0.1208,0.1168,0.1185,0.1164,0.1202,0.1301,0.1157,0.1157,0.1177,0.1401,0.1426,0.1445,0.1277,0.128,0.1283,0.1397,0,0.0715,0.0761,0.0814,0.0835,0.0859,0.0919,0.0894,0.0922,0.0896,0.0886,0.0952,0.0959,0.0991,0.101,0.0989,0.1088,0.1067,0.1028,0.0964,0.1073,0.1109,0.1125,0.091,0.0908,0.0907,0.0905,0,0,0.0553,0.0619,0.0589,0.0642,0.0659,0.0603,0.0668,0.068,0.0707,0.0719,0.0683,0.0763,0.0772,0.0855,0.0887,0.0905,0.0917,0.0883,0.1023,0.1036,0.1048,0.1088,0.1105,0.0902,0.0902,0.0901,0.0901,0,0.0471,0.0482,0.0549,0.0558,0.0572,0.0559,0.0575,0.058,0.0577,0.0646,0.0599,0.0638,0.0709,0.0719,0.0734,0.0873,0.0835,0.0886,0.0964,0.1007,0.1023,0.1036,0.1078,0.1095,0.0897,0.0897,0.0897,0,0.0327,0.0331,0.0362,0.0404,0.0414,0.0459,0.0384,0.0438,0.047,0.0411,0.048,0.0482,0.0498,0.0584,0.0622,0.0591,0.076,0.0707,0.0717,0.072,0.076,0.0779,0.0796,0.0575,0.0574,0.0573,0,0,0.026,0.0305,0.03,0.0386,0.0394,0.0377,0.0401,0.0379,0.0395,0.0402,0.0404,0.0421,0.0459,0.0487,0.0524,0.0623,0.0621,0.0669,0.0684,0.0696,0.0706,0.0749,0.0768,0.0569,0.0569,0.0569,0,0,0.0228,0.0224,0.0196,0.0293,0.0309,0.0311,0.0363,0.0329,0.0361,0.0351,0.0319,0.0323,0.0403,0.0409,0.0357,0.0499,0.0437,0.0449,0.0493,0.0512,0.0526,0.0521,0.0283,0,0,0,0,0,0.0132,0.0224,0.0199,0.0212,0.0268,0.0324,0.0331,0.0306,0.0259,0.03,0.0295,0.0257,0.0372,0.0326,0.034,0.0397,0.0518,0.0527,0.0536,0.0615,0.0635,0.0652,0,0,0,0,0,0,0.0137,0.0153,0.0196,0.0202,0.0215,0.0321,0.0236,0.0231,0.0254,0.0245,0.0258,0.0257,0.0237,0.0318,0.033,0.0385,0.0279,0.0522,0.0529,0.0536,0.0622,0.0638,0.0652,0,0,0,0,0,0.0141,0.0153,0.0252,0.0201,0.0212,0.0199,0.0232,0.0227,0.0245,0.024,0.0237,0.0223,0.024,0.0249,0.0325,0.0379,0.027,0.0274,0.0527,0.0533,0.0538,0.063,0,0,0,0,0,0,0.0143,0.015,0.0253,0.0255,0.0165,0.0192,0.0196,0.0225,0.0238,0.0236,0.0203,0.0195,0.0243,0.0249,0.0256,0.0379,0.0262,0.0267,0.027,0.0531,0.0536,0.054,0,0,0,0,0,0,0.0143,0.0152,0.0254,0.021,0.0207,0.0187,0.019,0.0253,0.0239,0.02,0.0194,0.0199,0.0232,0.025,0.0255,0.0355,0.0257,0.0261,0.0265,0.0267,0.0535,0.0539,0,0,0,0,0,0,0.0146,0.0154,0.0209,0.0207,0.0204,0.0228,0.0242,0.0302,0.02,0.02,0.019,0.0185,0.0234,0.0239,0.0255,0.0353,0.0355,0.0257,0.026,0.0262,0.0264,0,0,0,0,0,0,0,0.0149,0.0101,0.0239,0.0205,0.0202,0.0277,0.0277,0.0278,0.0199,0.0195,0.0191,0.0187,0.023,0.0235,0.024,0.0351,0,0,0.0256,0.0259,0,0,0,0,0,0,0,0,0.0097,0.01,0.0239,0.024,0.024,0.0277,0.0277,0.0278,0.0198,0.0195,0.0192,0.0189,0.0231,0.0235,0.0239,0,0,0,0,0,0,0,0,0,0,0,0,0,0,0,0.0239,0.024,0,0.0277,0.0277,0.0278,0.0198,0.0195,0.0192,0.019,0.0232,0.0236,0.0239,0,0,0,0,0,0,0,0,0,0,0,0,0,0,0,0,0,0,0,0,0,0,0,0,0,0,0,0,0,0,0,0,0,0,0,0,0,0,0,0,0,0,0,0,0,0,0,0,0,0,0,0,0,0,0,0,0,0,0,0,0,0,0,0,0,0,0,0,0]}]]]